| time (UTC) | temp C | wind direction | speed KPH | gust KPH | rain 1hr cm | rain 24hr cm | rain mn cm | humidity % | barometer mb |
| 20260507171923 | 29 | 198 | 0.0 | 0.0 | 0.00 | 0.00 | 0.00 | 83 | 1007.9 |
| 20260507171423 | 29 | 198 | 0.0 | 0.0 | 0.00 | 0.00 | 0.00 | 83 | 1007.9 |
| 20260507170923 | 29 | 198 | 0.0 | 0.0 | 0.00 | 0.00 | 0.00 | 84 | 1007.9 |
| 20260507165923 | 29 | 198 | 0.0 | 0.0 | 0.00 | 0.00 | 0.00 | 84 | 1007.8 |
| 20260507164423 | 29 | 196 | 0.0 | 0.0 | 0.00 | 0.00 | 0.00 | 84 | 1008.2 |
| 20260507163923 | 29 | 198 | 0.0 | 0.0 | 0.00 | 0.00 | 0.00 | 84 | 1008.3 |
| 20260507163423 | 29 | 198 | 0.0 | 0.0 | 0.00 | 0.00 | 0.00 | 83 | 1008.4 |
| 20260507162423 | 29 | 196 | 0.0 | 0.0 | 0.00 | 0.00 | 0.00 | 83 | 1008.5 |
| 20260507161923 | 29 | 196 | 1.6 | 0.0 | 0.00 | 0.00 | 0.00 | 83 | 1008.5 |
| 20260507161423 | 29 | 196 | 1.6 | 0.0 | 0.00 | 0.00 | 0.00 | 83 | 1008.6 |
| 20260507160423 | 29 | 211 | 0.0 | 0.0 | 0.00 | 0.00 | 0.00 | 82 | 1008.8 |
| 20260507155923 | 29 | 211 | 0.0 | 0.0 | 0.00 | 0.00 | 0.00 | 82 | 1008.8 |
| 20260507155423 | 29 | 211 | 1.6 | 0.0 | 0.00 | 0.00 | 0.00 | 82 | 1008.8 |
| 20260507154424 | 29 | 206 | 0.0 | 0.0 | 0.00 | 0.00 | 0.00 | 82 | 1009.0 |
| 20260507153923 | 29 | 206 | 3.2 | 0.0 | 0.00 | 0.00 | 0.00 | 81 | 1009.0 |
| 20260507152923 | 29 | 192 | 1.6 | 0.0 | 0.00 | 0.00 | 0.00 | 81 | 1009.2 |
| 20260507152423 | 30 | 198 | 4.8 | 0.0 | 0.00 | 0.00 | 0.00 | 81 | 1009.2 |
| 20260507151923 | 29 | 198 | 4.8 | 0.0 | 0.00 | 0.00 | 0.00 | 81 | 1009.2 |
| 20260507150923 | 29 | 165 | 8.0 | 0.0 | 0.00 | 0.00 | 0.00 | 81 | 1009.5 |
| 20260507150423 | 29 | 179 | 3.2 | 0.0 | 0.00 | 0.00 | 0.00 | 81 | 1009.5 |
| 20260507145923 | 29 | 179 | 4.8 | 0.0 | 0.00 | 0.00 | 0.00 | 81 | 1009.4 |
| 20260507144923 | 29 | 160 | 6.4 | 0.0 | 0.00 | 0.00 | 0.00 | 82 | 1009.3 |
| 20260507144423 | 29 | 184 | 3.2 | 0.0 | 0.00 | 0.00 | 0.00 | 82 | 1009.2 |
| 20260507143923 | 29 | 184 | 4.8 | 0.0 | 0.00 | 0.00 | 0.00 | 82 | 1009.1 |
| 20260507142923 | 29 | 161 | 9.7 | 0.0 | 0.00 | 0.00 | 0.00 | 83 | 1009.0 |
| 20260507141923 | 29 | 169 | 8.0 | 0.0 | 0.00 | 0.00 | 0.00 | 83 | 1009.0 |
| 20260507140923 | 29 | 155 | 11.3 | 0.0 | 0.00 | 0.00 | 0.00 | 84 | 1009.0 |
| 20260507135923 | 29 | 180 | 11.3 | 0.0 | 0.00 | 0.00 | 0.00 | 84 | 1008.8 |
| 20260507134923 | 29 | 186 | 12.9 | 0.0 | 0.00 | 0.00 | 0.00 | 85 | 1008.5 |
| 20260507133923 | 29 | 161 | 9.7 | 0.0 | 0.00 | 0.00 | 0.00 | 85 | 1008.1 |
| 20260507132923 | 29 | 195 | 16.1 | 0.0 | 0.00 | 0.00 | 0.00 | 84 | 1007.8 |
| 20260507132424 | 29 | 196 | 8.0 | 0.0 | 0.00 | 0.00 | 0.00 | 84 | 1007.6 |
| 20260507131423 | 29 | 180 | 11.3 | 0.0 | 0.00 | 0.00 | 0.00 | 84 | 1007.4 |
| 20260507130423 | 30 | 180 | 9.7 | 0.0 | 0.00 | 0.00 | 0.00 | 84 | 1007.2 |
| 20260507125923 | 30 | 175 | 11.3 | 0.0 | 0.00 | 0.00 | 0.00 | 84 | 1007.1 |
| 20260507125423 | 30 | 188 | 9.7 | 0.0 | 0.00 | 0.00 | 0.00 | 84 | 1006.9 |
| 20260507124923 | 30 | 190 | 9.7 | 0.0 | 0.00 | 0.00 | 0.00 | 84 | 1006.8 |
| 20260507124423 | 30 | 192 | 9.7 | 0.0 | 0.00 | 0.00 | 0.00 | 84 | 1006.8 |
| 20260507123423 | 30 | 184 | 9.7 | 0.0 | 0.00 | 0.00 | 0.00 | 83 | 1006.5 |
| 20260507122423 | 30 | 182 | 11.3 | 0.0 | 0.00 | 0.00 | 0.00 | 84 | 1006.4 |
| 20260507121923 | 30 | 137 | 8.0 | 0.0 | 0.00 | 0.00 | 0.00 | 84 | 1006.2 |
| 20260507121423 | 30 | 136 | 11.3 | 0.0 | 0.00 | 0.00 | 0.00 | 84 | 1006.1 |
| 20260507120423 | 30 | 155 | 8.0 | 0.0 | 0.00 | 0.00 | 0.00 | 84 | 1006.0 |
| 20260507115923 | 30 | 164 | 9.7 | 0.0 | 0.00 | 0.00 | 0.00 | 83 | 1006.0 |
| 20260507114923 | 30 | 172 | 12.9 | 0.0 | 0.00 | 0.00 | 0.00 | 83 | 1005.8 |
| 20260507113923 | 30 | 157 | 11.3 | 0.0 | 0.00 | 0.00 | 0.00 | 83 | 1005.7 |
| 20260507112923 | 30 | 153 | 14.5 | 0.0 | 0.00 | 0.00 | 0.00 | 81 | 1005.7 |
| 20260507111923 | 30 | 155 | 11.3 | 0.0 | 0.00 | 0.00 | 0.00 | 81 | 1005.8 |
| 20260507110423 | 31 | 155 | 12.9 | 0.0 | 0.00 | 0.00 | 0.00 | 79 | 1005.6 |